Location: Kile Knob Observatory
(38.6083°N, 79.4792°W)
Time: 19:51:13
(UTC-04:00)

Tiangong 2 - Pass Details

Date: 26 May 2019
Orbit: 376 x 389 km, 42.8° (Epoch: 20 June)

Event Time Altitude Azimuth Distance (km) Brightness Sun altitude
Rises 23:33:00 0° 289° (WNW) 2,231 5.6 -25.6°
Reaches altitude 10° 23:35:05 10° 286° (WNW) 1,378 4.4 -25.7°
Enters shadow 23:35:28 13° 285° (WNW) 1,225 4.1 -25.8°
